Retour au catalogue

CZ-3C DEB

ActifGTO
NORAD 40196·DEBRIS·🇨🇳 China

Lancé Feb 24, 2012 depuis Xichang Satellite Launch Center

Loading…

TLE

PériméSource: Space-Track

Époque: Sep 12, 2026, 23:05 UTC

1 40196U 12008F   26255.96188430 -.00000028  00000-0  11934-2 0  9991
2 40196  21.3891 181.1345 7055541 153.3271 274.1721  2.38487251111207

Suivez CZ-3C DEB en temps réel avec AllMySat

Download on the App Store